AirNav   TITAN Aviation Fuels
 
 435 users online  

42V Jones Airport
Benkelman, Nebraska, USA

GOING TO BENKELMAN?


FAA INFORMATION EFFECTIVE 16 JUNE 2022

Location

FAA Identifier: 42V
Lat/Long: 40-03-28.9800N 101-32-48.6010W
40-03.483000N 101-32.810017W
40.0580500,-101.5468336
(estimated)
Elevation: 3126 ft. / 953 m (estimated)
Variation: 09E (1985)
From city: 1 mile NW of BENKELMAN, NE
Time zone: UTC -6 (UTC -7 during Standard Time)
Zip code: 69021

Airport Operations

Airport use: Open to the public
Activation date: 11/1954
Control tower: no
ARTCC: DENVER CENTER
FSS: COLUMBUS FLIGHT SERVICE STATION
NOTAMs facility: OLU (NOTAM-D service available)
Attendance: DAYLIGHT HOURS
Wind indicator: yes
Segmented circle: no

Airport Communications

CTAF: 122.9

Airport Services

Parking: tiedowns
Airframe service: NONE
Powerplant service: NONE
Bottled oxygen: NONE
Bulk oxygen: NONE

Runway Information

Runway 15/33

Dimensions: 3500 x 25 ft. / 1067 x 8 m
Surface: concrete
RUNWAY 15  RUNWAY 33
Traffic pattern: leftleft
Displaced threshold: no1000 ft.
Obstructions: 17 ft. road, 550 ft. from runway, 32:1 slope to clearnone
+16 FT ROAD 105 FT FM EOR L/R.

Airport Ownership and Management from official FAA records

Ownership: Privately-owned
Owner: STAN JONES
BOX 685
BENKELMAN, NE 69021
Phone 308-423-2941
Manager: STAN JONES
BOX 685
BENKELMAN, NE 69021
Phone 308-423-2941
ALTN NR 308-883-0047

Airport Operational Statistics

Aircraft based on the field: 6
Single engine airplanes: 5
Multi engine airplanes: 1
    
Aircraft operations: avg 63/week *
91% local general aviation
9% transient general aviation
* for 12-month period ending 09 October 1996

Additional Remarks

NEW CROSSWIND RY UNDER CONSTRUCTION WEST OF RY 15/33.
FOR CD CTC DENVER ARTCC AT 303-651-4257.

Instrument Procedures

There are no published instrument procedures at 42V.

Some nearby airports with instrument procedures:

KSYF - Cheyenne County Municipal Airport (21 nm SW)
KADT - Atwood-Rawlins County City-County Airport (27 nm SE)
KIML - Imperial Municipal Airport (27 nm N)
2V5 - Wray Municipal Airport (32 nm W)
KGLD - Renner Field/Goodland Municipal Airport (42 nm S)
 
Loc | Ops | Rwys | IFR | FBO | Links
Com | Nav | Svcs | Stats | Notes

AirBoss

 
Area around 42V (Jones Airport)
 
Road maps at: MapQuest Bing Google
 
Aerial photo
WARNING: Photo may not be current or correct
Aerial photo of 42V (Jones Airport)
Do you have a better or more recent aerial photo of Jones Airport that you would like to share? If so, please send us your photo.

 
Sectional chart

 
Airport distance calculator
Flying to Jones Airport? Find the distance to fly.

From to 42V

Sunrise and sunset
Times for 02-Jul-2022
 Local
(UTC-6)
 Zulu
(UTC)
Morning civil twilight04:5010:50
Sunrise05:2211:22
Sunset20:1802:18
Evening civil twilight20:5102:51

Current date and time
Zulu (UTC)  02-Jul-2022 08:31:39
Local (UTC-6)  02-Jul-2022 02:31:39
 
METAR
KSYF 
21nm SW 
020815Z AUTO 00000KT 10SM OVC100 19/15 A3005 RMK AO2 T01850146 PWINO
KIML 
28nm N 
020753Z AUTO 08014G25KT 10SM BKN070 OVC095 20/18 A3006 RMK AO2 PK WND 07028/0739 SLP147 T02000178
K2V5 
32nm W 
020815Z AUTO 34009G17KT 10SM CLR 21/13 A3004 RMK AO2
KGLD 
42nm S 
020753Z AUTO 18005KT 10SM CLR 16/15 A3005 RMK AO2 SLP134 T01610150
TAF
KGLD 
42nm S 
020520Z 0206/0306 17008KT P6SM BKN080 FM021700 13010KT P6SM FEW060 FEW250
KMCK 
45nm E 
020816Z 0208/0306 08007KT P6SM SCT080 FM020820 08012KT 4SM TSRA SCT080CB FM020930 08010KT P6SM SCT080 FM021200 VRB06KT 6SM BR VCSH BKN007 FM021500 13007KT P6SM SCT020 SCT250
NOTAMs
Click for the latest NOTAMs
NOTAMs are issued by the DoD/FAA and will open in a separate window not controlled by AirNav.

 

 
 

Would you like to see your business listed on this page?

 If your business provides an interesting product or service to pilots, flight crews, aircraft, or users of the Jones Airport, you should consider listing it here.  To start the listing process, click on the button below
 
Add a business
 

Other Pages about Jones Airport

Update a link
 
Copyright © AirNav, LLC. All rights reserved. Privacy Policy  Contact